Weather observations for the past three days for
Brownsville, Brownsville / South Padre Island International Airport
Imperial (Metric)
Date Time (cdt) Wind (mph) Vis. (mi.) Weather Sky Cond. Temperature (ºF) Relative Humidity Wind Chill (°F) Heat Index (°F) Pressure Precipitation (in)
Air Dwpt 6 hour altimeter (in) sea level (mb) 1 hr 3 hr 6 hr
Max. Min.
15 21:53 E 9 10.00 Fair CLR 84.9 75 72% 93 29.82 1009.8
15 20:53 E 12 10.00 Fair CLR 86 75 70% 95 29.81 1009.4
15 19:53 E 15 10.00 Fair CLR 88 73.9 63% 97 29.8 1009.0
15 18:53 E 16 10.00 Fair CLR 91 72 98.1 91 54% 99 29.8 1008.9
15 17:53 E 18 G 24 10.00 Fair CLR 93 72 50% 101 29.8 1008.9
15 16:53 E 16 10.00 Fair CLR 95 72 47% 103 29.81 1009.2
15 15:53 E 13 G 26 10.00 A Few Clouds FEW043 96.1 72 46% 105 29.82 1009.7
15 14:53 E 15 10.00 A Few Clouds FEW046 96.1 73 48% 106 29.84 1010.3
15 13:53 E 13 G 23 10.00 A Few Clouds FEW047 97 73 46% 107 29.85 1010.7
15 12:53 NE 13 G 18 10.00 Partly Cloudy SCT047 96.1 73 97 81 48% 106 29.86 1011.1
15 11:53 E 10 10.00 A Few Clouds FEW043 FEW055 96.1 73.9 49% 107 29.86 1011.1
15 10:53 E 9 10.00 Mostly Cloudy BKN037 BKN050 93.9 73.9 52% 104 29.87 1011.3
15 09:53 SE 9 10.00 A Few Clouds FEW027 FEW037 90 75.9 63% 102 29.88 1011.7
15 08:53 SE 9 10.00 A Few Clouds FEW023 89.1 77 68% 102 29.88 1011.8
15 07:53 E 3 10.00 Fair CLR 84.9 77 77% 95 29.87 1011.5
15 06:53 Calm 10.00 Fair CLR 81 75.9 82.9 80.1 85% 87 29.86 1011.0
15 05:53 Calm 10.00 Fair CLR 82 75.9 82% 89 29.87 1011.2
15 04:53 Calm 10.00 A Few Clouds FEW022 81 75.9 85% 87 29.87 1011.3
15 03:53 Calm 10.00 Fair CLR 81 75.9 85% 87 29.87 1011.2
15 02:53 SE 3 10.00 Fair CLR 82 77 85% 90 29.87 1011.2
15 01:53 SE 6 10.00 Fair CLR 82 77 85% 90 29.88 1011.5
15 00:53 E 6 10.00 Fair CLR 82.9 75.9 91 82.9 79% 91 29.89 1012.1
14 23:53 E 9 10.00 Fair CLR 84.9 77 77% 95 29.89 1012.1
14 22:53 E 7 10.00 Fair CLR 84.9 77 77% 95 29.89 1011.9
14 21:53 E 9 10.00 Fair CLR 86 75.9 72% 96 29.86 1011.0
14 20:53 E 12 10.00 Fair CLR 86 73.9 67% 94 29.85 1010.6
14 19:53 E 15 G 22 10.00 Fair CLR 88 73 61% 96 29.84 1010.2
14 18:53 E 15 G 24 10.00 Fair CLR 91 71.1 98.1 91 52% 98 29.83 1010.1
14 17:53 E 17 G 24 10.00 Fair CLR 93.9 70 46% 100 29.83 1009.8
14 16:53 E 18 G 25 10.00 Fair CLR 96.1 70 43% 103 29.83 1010.0
14 15:53 NE 14 G 22 10.00 Fair CLR 98.1 72 43% 107 29.84 1010.4
14 14:53 E 13 G 23 10.00 Partly Cloudy SCT045 96.1 75 51% 108 29.85 1010.7
14 13:53 E 14 G 22 10.00 A Few Clouds FEW045 97 73.9 48% 108 29.86 1011.1
14 12:53 Vrbl 7 G 18 10.00 Mostly Cloudy SCT047 BKN055 95 73 97 80.1 49% 105 29.88 1011.6
14 11:53 NE 8 10.00 A Few Clouds FEW050 93.9 75 54% 106 29.89 1012.1
14 10:53 NE 7 10.00 Mostly Cloudy FEW034 BKN060 BKN075 93.9 75.9 56% 107 29.9 1012.4
14 09:53 Vrbl 6 10.00 A Few Clouds FEW031 91.9 75 58% 103 29.9 1012.4
14 08:53 E 3 10.00 Fair CLR 89.1 77 68% 102 29.9 1012.5
14 07:53 Calm 10.00 Fair CLR 84.9 78.1 80% 97 29.9 1012.2
14 06:53 Calm 10.00 Fair CLR 80.1 75.9 82.9 79 87% 85 29.88 1011.8
14 05:53 Calm 10.00 Fair CLR 80.1 75.9 87% 85 29.87 1011.2
14 04:53 Calm 10.00 Fair CLR 79 75 88% 83 29.86 1011.1
14 03:53 SE 5 10.00 Fair CLR 81 75.9 85% 87 29.87 1011.3
14 02:53 SE 5 10.00 A Few Clouds FEW022 81 75.9 85% 87 29.88 1011.5
14 01:53 S 5 10.00 Fair CLR 81 75.9 85% 87 29.88 1011.7
14 00:53 SE 5 10.00 Fair CLR 82.9 77 91.9 82.9 82% 92 29.89 1012.2
13 23:53 E 5 10.00 Fair CLR 84 77 80% 94 29.9 1012.3
13 22:53 E 7 10.00 Fair CLR 84.9 77 77% 95 29.88 1011.8
13 21:53 E 8 10.00 Fair CLR 86 75.9 72% 96 29.86 1011.1
13 20:53 E 10 10.00 Fair CLR 87.1 75 67% 97 29.85 1010.8
13 19:53 E 15 10.00 Fair CLR 89.1 75.9 65% 100 29.85 1010.6
13 18:53 E 14 10.00 Fair CLR 91.9 73.9 99 91.9 56% 102 29.84 1010.2
13 17:53 SE 16 10.00 Fair CLR 93.9 72 49% 102 29.83 1010.0
13 16:53 E 12 G 22 10.00 Fair CLR 96.1 72 46% 105 29.84 1010.2
13 15:53 E 10 G 22 10.00 Fair CLR 97 73 46% 107 29.85 1010.5
13 14:53 E 12 G 20 10.00 Fair CLR 99 73 43% 110 29.85 1010.8
13 13:53 E 13 G 18 10.00 Overcast OVC050 95 73.9 51% 106 29.86 1011.0
13 12:53 Vrbl 5 10.00 Overcast OVC055 95 72 97 80.1 47% 103 29.87 1011.5
13 11:53 SE 7 10.00 A Few Clouds FEW060 93.9 73 51% 103 29.89 1011.9
13 10:53 E 8 10.00 Fair CLR 93.9 73.9 52% 104 29.89 1012.2
13 09:53 S 6 10.00 Mostly Cloudy BKN031 91 75.9 61% 103 29.9 1012.3
13 08:53 S 8 10.00 Fair CLR 88 77 70% 100 29.9 1012.4
13 07:53 SE 3 10.00 A Few Clouds FEW023 82.9 77 82% 92 29.89 1011.9
13 06:53 SE 3 10.00 A Few Clouds FEW025 80.1 75.9 82.9 79 87% 85 29.87 1011.2
13 05:53 Calm 10.00 Fair CLR 80.1 75 85% 85 29.85 1010.8
13 04:53 Calm 10.00 Fair CLR 81 75.9 85% 87 29.85 1010.6
13 03:53 SE 3 10.00 Fair CLR 81 75.9 85% 87 29.84 1010.4
13 02:53 Calm 10.00 Fair CLR 82 75.9 82% 89 29.86 1010.9
13 01:53 SE 5 10.00 Fair CLR 82 75.9 82% 89 29.87 1011.2
13 00:53 SE 5 10.00 Fair CLR 82.9 77 91.9 82.9 82% 92 29.88 1011.7
12 23:53 SE 5 10.00 Fair CLR 82.9 77 82% 92 29.89 1011.9
12 22:53 SE 8 10.00 Fair CLR 84.9 77 77% 95 29.88 1011.6
Date Time (cdt) Wind (mph) Vis. (mi.) Weather Sky Cond. Air Dwpt Max. Min. Relative Humidity Wind Chill (°F) Heat Index (°F) altimeter (in) sea level (mb) 1 hr 3 hr 6 hr
6 hour
Temperature (ºF) Pressure Precipitation (in)